Regional Weather Roundup
Issued by NWS Wilmington, NC

Home | Current Version | Previous Version | Text Only | Print | Product List | Glossary On
Versions: 1 2 3 4 5 6 7 8 9 10 11 12 13 14 15 16 17 18 19 20 21 22 23 24 25 26 27 28 29 30 31 32 33 34 35 36 37 38 39 40 41 42 43 44 45 46 47 48 49 50
000
ASUS42 KILM 182013
RWRILM
RWRILM
REGIONAL HOURLY WEATHER ROUNDUP
NATIONAL WEATHER SERVICE WILMINGTON NC
300 PM EST FRI JAN 18 2019

NOTE: "FAIR" INDICATES FEW OR NO CLOUDS BELOW 12,000 FEET WITH NO
SIGNIFICANT WEATHER AND/OR OBSTRUCTIONS TO VISIBILITY.

...............WFO WILMINGTON COUNTY WARNING AREA...............

......COASTAL NC AND SC COUNTIES......

CITY           SKY/WX    TMP DP  RH WIND       PRES   REMARKS
WILMINGTON     FAIR      58  46  64 W6        30.08F
N MYRTLE BEACH CLOUDY    60  48  64 W5        30.08S
MYRTLE BEACH   CLOUDY    56  49  77 SE10      30.10R

......INLAND NC AND SC COUNTIES.......

CITY           SKY/WX    TMP DP  RH WIND       PRES   REMARKS
LUMBERTON      FAIR      56  46  69 CALM      30.08S
ELIZABETHTOWN  FAIR      58  45  62 NW5       30.08S
WHITEVILLE     PTSUNNY   57  47  68 SW5       30.08S
FLORENCE       CLOUDY    53  46  77 N7        30.11R
DARLINGTON     CLOUDY    49  45  86 CALM      30.12R
KINGSTREE      CLOUDY    61  48  63 CALM      30.09R
HARTSVILLE     CLOUDY    48  46  93 CALM      30.10R
BENNETTSVILLE  CLOUDY    48  45  87 SW3       30.11R
CONWAY         PTSUNNY   57  50  77 CALM      30.09S
GEORGETOWN     CLOUDY    63  45  51 W5        30.09S
MARION         PTSUNNY   52  45  76 NW7       30.10S

....................REST OF NORTH CAROLINA......................

.........EASTERN NC.........

CITY           SKY/WX    TMP DP  RH WIND       PRES   REMARKS
CAPE HATTERAS  FAIR      53  46  77 SW6       30.08R
JACKSONVILLE   FAIR      59  46  62 VRB3      30.07F
MOREHEAD CITY  FAIR      56  45  66 SW8       30.07S
KENANSVILLE    FAIR      59  45  58 NW6       30.07F
NEW BERN       PTSUNNY   60  46  59 N7        30.07F
ELIZABETH CITY CLOUDY    56  42  59 CALM      30.06S

.........CENTRAL NC.........

CITY           SKY/WX    TMP DP  RH WIND       PRES   REMARKS
RALEIGH DURHAM FAIR      57  39  51 W5        30.07F
ROCKY MOUNT    PTSUNNY   59  39  47 N7        30.06S
ROANOKE RAPIDS NOT AVBL
FAYETTEVILLE   FAIR      59  43  55 CALM      30.07F
HOFFMAN        NOT AVBL

.........WESTERN NC.........

CITY           SKY/WX    TMP DP  RH WIND       PRES   REMARKS
CHARLOTTE      PTSUNNY   49  44  83 CALM      30.10S HAZE
GREENSBORO     FAIR      55  40  56 W3        30.06S
HICKORY        NOT AVBL
BOONE          NOT AVBL
ASHEVILLE      NOT AVBL

.....................REST OF SOUTH CAROLINA.....................

.........EASTERN SC.........

CITY           SKY/WX    TMP DP  RH WIND       PRES   REMARKS
CHARLESTON     PTSUNNY   64  49  57 SW7       30.08S
BEAUFORT MCAS  PTSUNNY   64  53  67 W6        30.08F
HILTON HEAD    MOSUNNY   63  52  67 SE3       30.09F

.........CENTRAL SC.........

CITY           SKY/WX    TMP DP  RH WIND       PRES   REMARKS
COLUMBIA       PTSUNNY   57  49  74 N7        30.08S
ORANGEBURG     FAIR      61  47  59 VRB5      30.08R
SUMTER SHAW    NOT AVBL

.........WESTERN SC.........

CITY           SKY/WX    TMP DP  RH WIND       PRES   REMARKS
GREENVILLE     NOT AVBL
ROCK HILL      CLOUDY    49  45  86 CALM      30.09F
ANDERSON       FAIR      60  45  57 W6        30.05F
CLEMSON        NOT AVBL
GREENWOOD      CLOUDY    57  48  72 NE3       30.08S


...................COASTAL AND OFFSHORE REPORTS..................

................LOCAL PIERS AND NC RESERVE................


STATION/POSITION TIME  SKY/WX   TEMP    WIND        PRES    VSBY
                                AIR SEA DIR/SP/G
                 (UTC)          (F)     (DEG/KT/KT) (MB)    (MI)
JOHNY MRCER PIER 1948            56     300/  5/  7 1018.7F
NC RESRV MASNBRO NOT AVBL
OCEAN CREST PIER NOT AVBL
SPRINGMAID  PIER NOT AVBL


................COASTAL AND OFFSHORE BUOYS................


STATION/POSITION TIME  SKY/WX   TEMP    WIND        PRES    VSBY
                                AIR SEA DIR/SP/G
                 (UTC)          (F)     (DEG/KT/KT) (MB)    (MI)
DIMNDSHOAL 41025 NOT AVBL
CAPE LOOKOUT     2000                   250/  5/  6 1018.6F
ONSLOW BAY 41036 NOT AVBL
ONSLOW BAY 41064 NOT AVBL
ONSLOW BAY 41159 2000               58                N/A
WVE H/P(F/S)=  2/ 4

MASNBO INL 41110 2000               55                N/A
WVE H/P(F/S)=  1/10

WILM HARBR 41108 2000               56                N/A
WVE H/P(F/S)=  2/ 4

27SE WRITB 41037 NOT AVBL
FRYING PAN 41013 1950            56 67  290/  6/  8 1019.3F
WVE H/P(F/S)=  2/ 4 SWL H/P/D(F/S/D)=  2/ 90/10

SUNST NRSH 41024 1908            54 54  180/  6/  8 1018.4F
CAPRS NRSH 41029 1908            57 56  220/  8/ 10 1019.1F
EDISTO     41004 1950               62  320/  4/  4 1019.5F
WVE H/P(F/S)=  1/10 SWL H/P/D(F/S/D)=  2/100/10



..........OFFSHORE BUOYS BEYOND 100 NM OFFSHORE...........
.....IN A TRIANGLE---HAT TO BERMUDA TO BAHAMAS TO HAT.....


STATION/POSITION TIME  SKY/WX   TEMP    WIND        PRES    VSBY
                                AIR SEA DIR/SP/G
                 (UTC)          (F)     (DEG/KT/KT) (MB)    (MI)
150E HAT   41001 NOT AVBL
W BERMUDA  41048 NOT AVBL
ATLANTIC S 41049 1950               75   50/  6/ 10 1019.4F
WVE H/P(F/S)=  5/10 SWL H/P/D(F/S/D)=  5/ 30/10

E BAHAMAS  41046 1950                   110/ 12/ 16 1018.5F
WVE H/P(F/S)=  4/10 SWL H/P/D(F/S/D)=  3/ 40/10

NE BAHAMAS 41047 1950                   170/  6/ 10 1019.3R
WVE H/P(F/S)=  4/10 SWL H/P/D(F/S/D)=  3/ 60/10

120E CANVRL41010 1950            72 76  340/  6/ 10 1019.5F

END



USA.gov is the U.S. government's official web portal to all federal, state and local government web resources and services.